User: anonymous   Login
Location: NC_16_and_73
(35.4490°N, 81.0150°W)
Time: 03:56:00
(UTC-04:00)
Language:

Cosmos-2242 - Orbit

View from above orbital plane
View from above orbital plane
View from above satellite
View from above satellite

Ground track
Ground track

The orbit data is extracted from the following two-line orbital elements,

1 22626U 93024A   16145.20520165  .00000376  00000-0  38700-4 0  9992
2 22626  82.5240  48.4658 0018521 336.5358  23.5012 14.87454511248328
Epoch (UTC): 24 May 2016 04:55:29
Eccentricity: 0.0018521
inclination: 82.5240°
perigee height: 593 km
apogee height: 619 km
right ascension of ascending node: 48.4658°
argument of perigee: 336.5358°
revolutions per day: 14.87454511
mean anomaly at epoch: 23.5012°
orbit number at epoch: 24832

The dashed part of the orbit path shows where the satellite is in the earth's shadow,  

DLR